[[{"header":{"parameterUnit":"m.s-1","parameterCategory":1,"la1":30.2991,"la2":30.254,"lo1":-89.0895,"lo2":-89.0444,"dy":0.0017,"dx":0.0017,"nx":28,"ny":28,"refTime":"2025-07-26T03:00:00:Z","depth":0,"parameterNumber":2,"parameterNumberName":"U-component_of_WINDS"},"data":[0,0,0,0,0,0,0,0,0,0,0,0,0,0,0,0,0,0,0,0,0,0,0,0,0,0,0,0,0,0,0,0,0,0,0,0,0,0,0,0,0,0,0,0,0,0,0,0,0,0,0,0,0,0,0,0,0,0,0.1058,0.1058,0,0.1063,0.1063,0.1063,0.1075,0.1076,0.1076,0.1076,0.1081,0.1081,0.108,0,0,0,0,0,0,0,0,0,0,0,0,0,0.1057,0.1057,0.1058,0.1058,0.1058,0.1063,0.1063,0.1063,0.1075,0.1076,0.1076,0.1076,0.1081,0.1081,0.108,0,0,0,0,0,0,0,0,0,0,0,0,0,0.106,0.1057,0.1058,0.1065,0.1066,0.1063,0.1063,0.1064,0.1075,0.1076,0.1076,0.1076,0.1081,0.1081,0.108,0.1072,0,0,0.108,0.108,0,0,0,0,0,0,0,0,0.1059,0.106,0.1064,0.1064,0.1065,0.1069,0.1065,0.1066,0.1075,0.1072,0.1076,0.1077,0.1076,0.1077,0.1077,0.1072,0.1072,0.108,0.108,0.108,0.108,0,0,0,0,0,0,0,0.1059,0.1059,0.106,0.1064,0.1065,0.1067,0.1068,0.1065,0.1072,0.1072,0.1073,0.1073,0.1077,0.1077,0.1077,0.1072,0.108,0.108,0.108,0.108,0.106,0.1059,0,0,0,0,0,0,0.1058,0.1059,0.106,0.106,0.1063,0.1067,0.1068,0.1067,0.1072,0.1073,0.1073,0.1074,0.1077,0.1077,0.1077,0.1067,0.108,0.108,0.1079,0.106,0.106,0.1059,0,0,0,0,0,0,0.1058,0.1058,0.106,0.106,0.106,0.1067,0.1066,0.1067,0.1067,0.1073,0.1074,0.1072,0.1077,0.1077,0.1073,0.1067,0.1079,0.1079,0.1061,0.106,0.1059,0.1046,0,0,0,0,0,0,0.1058,0.1058,0.1055,0.106,0.106,0.1056,0.1066,0.1067,0.1067,0.1068,0.1072,0.1073,0.1078,0.1073,0.1073,0.1067,0.1079,0.1061,0.106,0.106,0.1047,0.1045,0.1043,0,0,0,0,0,0.1058,0.1051,0.1055,0.1055,0.1057,0.1055,0.1056,0.1062,0.1067,0.1064,0.1067,0.1073,0.1068,0.1073,0.1072,0.1066,0.1062,0.1061,0.106,0.1048,0.1045,0.1043,0,0,0,0,0,0,0.1046,0.1052,0.1056,0.1051,0.1053,0.1057,0.1054,0.1059,0.1059,0.106,0.1067,0.1068,0.1062,0.1064,0.1069,0.1058,0.1066,0.1064,0.1056,0.1054,0.1052,0.1052,0.1079,0,0,0,0,0,0.1043,0.1041,0.1047,0.1041,0.1042,0.1048,0.1047,0.1052,0.1053,0.1054,0.1057,0.1058,0.1057,0.1056,0.1055,0.1047,0.1048,0.1043,0.1041,0.104,0.1038,0.1033,0.1031,0.1056,0.1056,0.1056,0,0,0.1036,0.1039,0.1038,0.1039,0.1041,0.1038,0.1048,0.1046,0.1044,0.1054,0.1049,0.1051,0.1053,0.1047,0.1044,0.1048,0.1031,0.1038,0.1037,0.1037,0.1032,0.103,0.1027,0.1055,0.1055,0.1055,0,0,0.1022,0.1025,0.102,0.1021,0.1024,0.1028,0.1026,0.103,0.1032,0.1028,0.1035,0.1033,0.1031,0.1031,0.1031,0.1017,0.1022,0.1016,0.1006,0.1001,0.0999,0.0998,0.0991,0.0989,0.1015,0.1015,0.1015,0,0.1013,0.101,0.1017,0.1014,0.1013,0.1022,0.1017,0.1018,0.102,0.102,0.1024,0.1021,0.1023,0.1016,0.1013,0.1013,0.1011,0.1016,0.0999,0.0997,0.0996,0.099,0.0988,0.1015,0.1015,0.1015,0.1015,0,0.0998,0.0996,0.0992,0.0993,0.0993,0.0989,0.0995,0.0993,0.0997,0.1,0.0996,0.0998,0.0997,0.0996,0.1001,0.099,0.0992,0.0998,0.1006,0.0993,0.0987,0.0985,0.1013,0.1014,0.1014,0.1014,0,0,0.0977,0.0982,0.098,0.098,0.0983,0.0982,0.0978,0.0977,0.0975,0.0976,0.0972,0.097,0.0975,0.0975,0.0979,0.0975,0.0962,0.0981,0.0981,0.0976,0.0949,0.0944,0.0941,0.0966,0.0965,0.0965,0.0948,0,0.0963,0.0956,0.0962,0.0954,0.0951,0.0959,0.0956,0.0957,0.096,0.0957,0.096,0.0958,0.0966,0.0965,0.0962,0.0964,0.0956,0.0966,0.0961,0.0961,0.0959,0.0939,0.0933,0.0918,0.0946,0.0946,0.0946,0,0.0945,0.0945,0.0937,0.094,0.0939,0.0936,0.0935,0.0933,0.0934,0.0937,0.0936,0.0942,0.0937,0.0945,0.0939,0.0945,0.0943,0.0944,0.0944,0.0943,0.0952,0.0936,0.0913,0.091,0.0943,0.0943,0.0943,0,0.0929,0.0927,0.0922,0.0922,0.0925,0.0922,0.0924,0.0925,0.0924,0.0924,0.0923,0.0922,0.0921,0.092,0.0924,0.093,0.0916,0.0925,0.0917,0.0917,0.0913,0.0913,0.0888,0.0914,0.0914,0.0914,0.0914,0,0.0912,0.0907,0.0914,0.0911,0.0904,0.0911,0.0904,0.0906,0.0907,0.0904,0.0911,0.0908,0.0914,0.0911,0.0915,0.0908,0.0908,0.0909,0.091,0.0908,0.0907,0.0906,0.0907,0.0913,0.0914,0.0914,0.0914,0,0.0893,0.0898,0.0892,0.0895,0.0896,0.0891,0.0894,0.089,0.0894,0.0889,0.0888,0.0893,0.089,0.0894,0.0892,0.0894,0.0884,0.0888,0.0884,0.0884,0.0875,0.0876,0.0848,0.0844,0.0873,0.0873,0.0873,0,0.0881,0.0877,0.088,0.0878,0.0879,0.0876,0.0875,0.0881,0.0879,0.088,0.0876,0.0874,0.0872,0.0866,0.0869,0.0867,0.0869,0.086,0.0869,0.0866,0.0867,0.0867,0.0866,0.0857,0.0857,0.0857,0.0856,0,0.086,0.0862,0.086,0.0859,0.0857,0.0857,0.0857,0.0855,0.0861,0.0859,0.0855,0.0854,0.0851,0.0848,0.0846,0.0847,0.0852,0.0854,0.0851,0.0849,0.0846,0.0846,0.0878,0.0854,0.0854,0.0854,0.0855,0.0855,0.0843,0.0839,0.084,0.0838,0.0838,0.0838,0.0834,0.0837,0.0834,0.0832,0.0836,0.0832,0.0832,0.0831,0.0831,0.0827,0.0831,0.0828,0.0827,0.0826,0.0824,0.0848,0.0827,0.0827,0.0827,0.0827,0.0827,0,0.0821,0.0822,0.082,0.0819,0.0817,0.0822,0.0822,0.082,0.0816,0.0816,0.0814,0.0809,0.0806,0.0809,0.0806,0.0803,0.0805,0.0801,0.0801,0.0801,0.0821,0.0823,0.08,0.08,0.08,0.08,0.08,0.08,0.0809,0.0803,0.0805,0.0798,0.08,0.0795,0.0794,0.0794,0.0794,0.0789,0.0786,0.0788,0.0788,0.0786,0.0783,0.0784,0.0782,0.0777,0.0779,0.0797,0.08,0.0802,0.0804,0.0777,0.0777,0.0759,0.0759,0.0759]},{"header":{"parameterUnit":"m.s-1","parameterCategory":1,"la1":30.2991,"la2":30.254,"lo1":-89.0895,"lo2":-89.0444,"dy":0.0017,"dx":0.0017,"nx":28,"ny":28,"refTime":"2025-07-26T03:00:00:Z","depth":0,"parameterNumber":3,"parameterNumberName":"V-component_of_WINDS"},"data":[0,0,0,0,0,0,0,0,0,0,0,0,0,0,0,0,0,0,0,0,0,0,0,0,0,0,0,0,0,0,0,0,0,0,0,0,0,0,0,0,0,0,0,0,0,0,0,0,0,0,0,0,0,0,0,0,0,0,3.5295,3.5295,0,3.5321,3.5321,3.5322,3.5272,3.5271,3.5269,3.5268,3.5293,3.5295,3.5297,0,0,0,0,0,0,0,0,0,0,0,0,0,3.5199,3.5201,3.5295,3.5295,3.5295,3.5321,3.5321,3.5322,3.5273,3.5271,3.5269,3.5267,3.5292,3.5295,3.5298,0,0,0,0,0,0,0,0,0,0,0,0,0,3.5234,3.5201,3.5295,3.5274,3.5272,3.5321,3.5321,3.5322,3.5273,3.5271,3.5268,3.5266,3.5292,3.5295,3.5298,3.5367,0,0,3.5308,3.531,0,0,0,0,0,0,0,0,3.5232,3.5238,3.5277,3.5275,3.5274,3.5291,3.5297,3.5337,3.5274,3.5273,3.5267,3.5265,3.5294,3.5297,3.5307,3.5369,3.537,3.5308,3.531,3.5312,3.5313,0,0,0,0,0,0,0,3.523,3.5236,3.5305,3.5277,3.5275,3.5262,3.5265,3.5304,3.5297,3.5273,3.5269,3.5273,3.5293,3.5304,3.5308,3.537,3.5308,3.5311,3.5313,3.5315,3.5487,3.5489,0,0,0,0,0,0,3.523,3.5235,3.5304,3.5306,3.5247,3.5266,3.5269,3.5288,3.5296,3.5295,3.5275,3.5271,3.53,3.5304,3.5308,3.5388,3.5312,3.5315,3.5317,3.5484,3.5487,3.549,0,0,0,0,0,0,3.5229,3.5237,3.5303,3.5269,3.5277,3.527,3.5292,3.529,3.5301,3.5298,3.5296,3.5288,3.5298,3.5304,3.5353,3.5388,3.5316,3.5319,3.5481,3.5485,3.5489,3.555,0,0,0,0,0,0,3.5226,3.5237,3.5264,3.527,3.5279,3.5348,3.5295,3.5292,3.5307,3.5301,3.531,3.5309,3.5297,3.5348,3.5356,3.5392,3.5322,3.5478,3.5483,3.5488,3.5544,3.5555,3.5564,0,0,0,0,0,3.5223,3.528,3.5265,3.5274,3.5313,3.535,3.5355,3.534,3.531,3.5337,3.5334,3.5309,3.5384,3.5353,3.5362,3.5399,3.5476,3.5482,3.5487,3.554,3.5553,3.5564,0,0,0,0,0,0,3.5278,3.5281,3.5264,3.5326,3.5338,3.5342,3.5375,3.5355,3.5375,3.5369,3.5349,3.5351,3.5403,3.5406,3.5373,3.5466,3.5424,3.5432,3.5462,3.5474,3.5484,3.5481,3.5325,0,0,0,0,0,3.5297,3.5328,3.5329,3.5383,3.539,3.5381,3.5397,3.5384,3.5396,3.5401,3.5402,3.5414,3.544,3.5457,3.5481,3.5545,3.5545,3.5575,3.5585,3.5593,3.5599,3.5631,3.5643,3.5509,3.5509,3.5509,0,0,3.5338,3.5343,3.5364,3.5394,3.5402,3.5433,3.5386,3.5422,3.5444,3.5406,3.5452,3.5453,3.5465,3.5521,3.5546,3.5525,3.5636,3.56,3.5607,3.5609,3.5638,3.5651,3.5662,3.5513,3.5513,3.5512,0,0,3.5426,3.5435,3.5479,3.5488,3.55,3.5494,3.5505,3.5512,3.5511,3.5557,3.5528,3.5554,3.56,3.5609,3.5619,3.571,3.5686,3.5718,3.5769,3.58,3.5811,3.582,3.585,3.5861,3.5725,3.5725,3.5725,0,3.5475,3.5521,3.5505,3.5542,3.5555,3.5522,3.5566,3.5575,3.5595,3.5604,3.5581,3.5636,3.5642,3.5698,3.572,3.5731,3.5741,3.5716,3.5811,3.582,3.5828,3.5857,3.5868,3.5729,3.5728,3.5728,3.5728,0,3.5578,3.5611,3.5645,3.5665,3.5682,3.5723,3.5711,3.573,3.5716,3.5712,3.5757,3.5763,3.5786,3.5799,3.5786,3.5853,3.584,3.5814,3.5772,3.5845,3.5871,3.5882,3.5734,3.5733,3.5731,3.5731,0,0,3.5703,3.5711,3.5724,3.5731,3.5742,3.5766,3.5805,3.5828,3.5843,3.5858,3.5888,3.5927,3.5903,3.5915,3.5902,3.5929,3.5998,3.59,3.59,3.5916,3.607,3.6087,3.61,3.5983,3.5985,3.5987,3.6068,0,3.5789,3.5854,3.584,3.5904,3.5933,3.5902,3.5934,3.5944,3.5941,3.5964,3.596,3.5987,3.5955,3.5961,3.5987,3.5984,3.6028,3.5978,3.6009,3.601,3.6005,3.6114,3.6133,3.621,3.6078,3.608,3.6081,0,3.5898,3.5916,3.5983,3.5987,3.5998,3.6028,3.6047,3.607,3.6079,3.6075,3.6088,3.6069,3.6106,3.6065,3.6113,3.608,3.6091,3.6092,3.6094,3.6095,3.6049,3.6116,3.6234,3.6245,3.6098,3.6096,3.6095,0,3.5979,3.602,3.6064,3.6072,3.6079,3.61,3.6104,3.6111,3.6125,3.6141,3.615,3.617,3.6181,3.6197,3.6184,3.6155,3.6234,3.6192,3.6229,3.623,3.6246,3.6245,3.6366,3.6257,3.6257,3.6257,3.6257,0,3.6075,3.6117,3.61,3.6128,3.6173,3.6155,3.62,3.62,3.6207,3.6232,3.6207,3.6232,3.6214,3.6237,3.6227,3.6267,3.6273,3.627,3.6266,3.6271,3.6271,3.6277,3.627,3.626,3.6259,3.6259,3.6258,0,3.6173,3.6164,3.621,3.6212,3.6213,3.6246,3.6247,3.6272,3.6267,3.63,3.6306,3.6298,3.6324,3.6313,3.634,3.6333,3.6384,3.6375,3.6381,3.6377,3.6415,3.641,3.6542,3.6557,3.6441,3.6442,3.6443,0,3.6234,3.6265,3.627,3.6285,3.6291,3.6316,3.633,3.6314,3.6329,3.6341,3.6364,3.6387,3.6405,3.6446,3.6442,3.6462,3.6452,3.6496,3.6454,3.6457,3.645,3.6447,3.6449,3.6504,3.6506,3.6507,3.6508,0,3.6343,3.6336,3.6357,3.6376,3.6393,3.6407,3.6419,3.6433,3.6418,3.6436,3.6461,3.6475,3.6502,3.6524,3.6541,3.6544,3.6523,3.6521,3.653,3.6534,3.6536,3.6533,3.6401,3.6518,3.6517,3.6516,3.6515,3.6515,3.6422,3.6447,3.6454,3.6478,3.6485,3.6496,3.6519,3.6516,3.6537,3.6557,3.6547,3.6576,3.6583,3.6604,3.6609,3.6631,3.6613,3.6628,3.6631,3.6634,3.6638,3.6534,3.6635,3.6634,3.6634,3.6634,3.6634,0,3.6527,3.653,3.6552,3.6569,3.6587,3.6566,3.6578,3.6594,3.662,3.6628,3.6646,3.6674,3.6695,3.6693,3.6712,3.673,3.6721,3.6735,3.6733,3.6733,3.6654,3.6643,3.6743,3.6743,3.6743,3.6743,3.6743,3.6743,3.6584,3.6625,3.6619,3.6662,3.6664,3.6692,3.6701,3.671,3.6717,3.6749,3.6767,3.6765,3.6769,3.6788,3.6806,3.6805,3.6812,3.683,3.6825,3.675,3.6739,3.6729,3.6718,3.6833,3.6833,3.6903,3.6903,3.6904]}]]